| time (UTC) | temp F | wind direction | speed MPH | gust MPH | rain 1hr in | rain 24hr in | rain mn in | humidity % | barometer mb |
| 20260504041611 | 61 | 14 | 0.0 | 0.0 | 0.00 | 0.00 | 0.00 | 78 | 1016.3 |
| 20260504040015 | 61 | 16 | 0.0 | 0.0 | 0.00 | 0.00 | 0.00 | 78 | 1016.4 |
| 20260504034518 | 62 | 16 | 0.0 | 0.0 | 0.00 | 0.00 | 0.00 | 78 | 1016.4 |
| 20260504033108 | 62 | 16 | 0.0 | 0.0 | 0.00 | 0.00 | 0.00 | 77 | 1016.4 |
| 20260504031515 | 62 | 16 | 0.0 | 0.0 | 0.00 | 0.00 | 0.00 | 78 | 1016.5 |
| 20260504030025 | 63 | 16 | 0.0 | 0.0 | 0.00 | 0.00 | 0.00 | 77 | 1016.5 |
| 20260504024614 | 63 | 16 | 0.0 | 0.0 | 0.00 | 0.00 | 0.00 | 77 | 1016.6 |
| 20260504023010 | 64 | 16 | 0.0 | 0.0 | 0.00 | 0.00 | 0.00 | 77 | 1016.5 |
| 20260504021601 | 65 | 16 | 0.0 | 0.0 | 0.00 | 0.00 | 0.00 | 76 | 1016.3 |
| 20260504020012 | 65 | 16 | 0.0 | 0.0 | 0.00 | 0.00 | 0.00 | 73 | 1016.1 |
| 20260504014513 | 66 | 16 | 0.0 | 0.0 | 0.00 | 0.00 | 0.00 | 74 | 1016.1 |
| 20260504013010 | 68 | 16 | 0.0 | 0.0 | 0.00 | 0.00 | 0.00 | 69 | 1016.1 |
| 20260504011518 | 69 | 16 | 0.0 | 0.0 | 0.00 | 0.00 | 0.00 | 65 | 1016.0 |
| 20260504004606 | 74 | 16 | 0.0 | 0.0 | 0.00 | 0.00 | 0.00 | 57 | 1015.8 |
| 20260504003021 | 78 | 33 | 0.0 | 1.0 | 0.00 | 0.00 | 0.00 | 49 | 1015.7 |
| 20260504000009 | 80 | 259 | 0.0 | 4.0 | 0.00 | 0.00 | 0.00 | 44 | 1015.7 |
| 20260503234518 | 81 | 86 | 0.0 | 2.0 | 0.00 | 0.00 | 0.00 | 43 | 1016.0 |
| 20260503233111 | 82 | 142 | 0.0 | 2.0 | 0.00 | 0.00 | 0.00 | 42 | 1016.0 |
| 20260503231508 | 83 | 111 | 0.0 | 2.0 | 0.00 | 0.00 | 0.00 | 43 | 1016.1 |
| 20260503230111 | 83 | 224 | 0.0 | 4.0 | 0.00 | 0.00 | 0.00 | 41 | 1016.2 |
| 20260503224607 | 82 | 135 | 0.0 | 7.0 | 0.00 | 0.00 | 0.00 | 42 | 1016.2 |
| 20260503223018 | 82 | 133 | 0.0 | 4.0 | 0.00 | 0.00 | 0.00 | 44 | 1016.4 |
| 20260503221522 | 80 | 37 | 0.0 | 1.0 | 0.00 | 0.00 | 0.00 | 48 | 1016.5 |
| 20260503220106 | 82 | 156 | 0.0 | 7.0 | 0.00 | 0.00 | 0.00 | 40 | 1016.5 |
| 20260503214512 | 83 | 210 | 2.0 | 9.0 | 0.00 | 0.00 | 0.00 | 42 | 1016.7 |
| 20260503213015 | 82 | 141 | 1.0 | 2.0 | 0.00 | 0.00 | 0.00 | 42 | 1017.0 |
| 20260503211613 | 82 | 50 | 1.0 | 5.0 | 0.00 | 0.00 | 0.00 | 41 | 1017.2 |
| 20260503210020 | 84 | 143 | 0.0 | 4.0 | 0.00 | 0.00 | 0.00 | 41 | 1017.3 |
| 20260503204511 | 83 | 184 | 0.0 | 5.0 | 0.00 | 0.00 | 0.00 | 45 | 1017.6 |
| 20260503203020 | 80 | 81 | 2.0 | 6.0 | 0.00 | 0.00 | 0.00 | 43 | 1017.9 |
| 20260503201518 | 81 | 295 | 2.0 | 7.0 | 0.00 | 0.00 | 0.00 | 46 | 1018.0 |
| 20260503200016 | 81 | 244 | 2.0 | 6.0 | 0.00 | 0.00 | 0.00 | 41 | 1018.2 |
| 20260503194512 | 81 | 271 | 2.0 | 6.0 | 0.00 | 0.00 | 0.00 | 42 | 1018.6 |
| 20260503193113 | 80 | 304 | 3.0 | 10.0 | 0.00 | 0.00 | 0.00 | 43 | 1018.8 |
| 20260503191520 | 80 | 339 | 4.0 | 10.0 | 0.00 | 0.00 | 0.00 | 43 | 1019.1 |
| 20260503190016 | 80 | 148 | 0.0 | 8.0 | 0.00 | 0.00 | 0.00 | 48 | 1019.3 |
| 20260503183113 | 79 | 189 | 1.0 | 8.0 | 0.00 | 0.00 | 0.00 | 48 | 1019.9 |
| 20260503181513 | 79 | 298 | 4.0 | 11.0 | 0.00 | 0.00 | 0.00 | 45 | 1020.1 |
| 20260503180113 | 79 | 10 | 1.0 | 6.0 | 0.00 | 0.00 | 0.00 | 47 | 1020.3 |
| 20260503174519 | 79 | 240 | 2.0 | 8.0 | 0.00 | 0.00 | 0.00 | 46 | 1020.4 |
| 20260503173009 | 78 | 131 | 0.0 | 8.0 | 0.00 | 0.00 | 0.00 | 48 | 1020.6 |
| 20260503171610 | 78 | 312 | 1.0 | 7.0 | 0.00 | 0.00 | 0.00 | 47 | 1021.0 |
| 20260503160109 | 74 | 280 | 1.0 | 8.0 | 0.00 | 0.00 | 0.00 | 55 | 1021.4 |
| 20260503150104 | 70 | 336 | 1.0 | 4.0 | 0.00 | 0.00 | 0.00 | 62 | 1021.7 |
| 20260503140103 | 62 | 137 | 0.0 | 2.0 | 0.00 | 0.00 | 0.00 | 78 | 1021.6 |
| 20260503130112 | 55 | 328 | 0.0 | 1.0 | 0.00 | 0.00 | 0.00 | 94 | 1021.3 |
| 20260503090106 | 51 | 328 | 0.0 | 0.0 | 0.00 | 0.00 | 0.00 | 91 | 1019.4 |
| 20260503081630 | 51 | 328 | 0.0 | 0.0 | 0.00 | 0.00 | 0.00 | 91 | 1019.4 |
| 20260503071508 | 52 | 328 | 0.0 | 0.0 | 0.00 | 0.00 | 0.00 | 90 | 1019.2 |
| 20260503054507 | 54 | 328 | 0.0 | 0.0 | 0.00 | 0.00 | 0.00 | 88 | 1019.3 |
| 20260503053004 | 54 | 328 | 0.0 | 0.0 | 0.00 | 0.00 | 0.00 | 88 | 1019.3 |
| 20260503051505 | 55 | 328 | 0.0 | 0.0 | 0.00 | 0.00 | 0.00 | 87 | 1019.3 |
| 20260503050034 | 55 | 328 | 0.0 | 0.0 | 0.00 | 0.00 | 0.00 | 87 | 1019.3 |
| 20260503043018 | 55 | 328 | 0.0 | 0.0 | 0.00 | 0.00 | 0.00 | 85 | 1019.2 |